Hourly Data Report for May 03, 2016

All times are specified in Local Standard Time (LST). Add 1 hour to adjust for Daylight Saving Time where and when it is observed.

FORT MCMURRAY CS
ALBERTA

56°39'04.000" N
111°12'48.000" W
368.80 m
3062696
71585
XMM

Download Data

Hourly Data (May 2016)
Hourly Data Report for May 3, 2016
Temp Definition
°C
Dew Point Temp Definition
°C
Rel Hum Definition
%
Wind Dir Definition
10's deg

Wind Spd Definition
km/h
Visibility Definition
km
Stn Press Definition
kPa
Hmdx Definition


Wind Chill Definition


Weather Definition


TIME
00:00 15.8 3.7 44 11 17   96.82     LegendNANA
01:00 15.5 3.5 45 10 15   96.84     LegendNANA
02:00 13.6 3.5 50 10 14   96.86     LegendNANA
03:00 13.5 3.3 50 10 12   96.86     LegendNANA
04:00 12.1 3.5 55 10 12   96.86     LegendNANA
05:00 11.6 3.3 56 10 10   96.86     LegendNANA
06:00 13.0 3.3 52 11 12   96.84     LegendNANA
07:00 14.5 3.8 48 11 12   96.83     LegendNANA
08:00 17.4 4.3 42 10 10   96.80     LegendNANA
09:00 19.7 4.3 36 7 9   96.77     LegendNANA
10:00 23.3 4.6 30 7 10   96.73     LegendNANA
11:00 27.3 5.3 24 7 11   96.65 27   LegendNANA
12:00 31.2 -0.2 13 24 18   96.58 29   LegendNANA
13:00 30.9 -0.4 13 21 13   96.53 29   LegendNANA
14:00 30.0 -0.9 13 20 20   96.49 28   LegendNANA
15:00 32.3 -0.5 12 22 18   96.42 30   LegendNANA
16:00 31.5 -1.2 12 22 22   96.37 29   LegendNANA
17:00 30.6 -0.7 13 23 17   96.34 28   LegendNANA
18:00 30.7 -1.2 13 24 11   96.28 28   LegendNANA
19:00 29.6 -1.9 13 22 18   96.22 27   LegendNANA
20:00 23.6 0.6 22 19 16   96.20     LegendNANA
21:00 20.9 1.5 27 17 16   96.19     LegendNANA
22:00 19.9 1.5 29 17 16   96.16     LegendNANA
23:00 20.1 1.7 29 18 16   96.14     LegendNANA

Notes on Data Quality.

Legend

  • E = Estimated
  • M = Missing
  • NA = Not Available
Date modified: